FW3577 Weather Reports


time (UTC)temp
C
wind
direction
speed
KPH
gust
KPH
rain 1hr
cm
rain 24hr
cm
rain mn
cm
humidity
%
barometer
mb
20260504082000 13 306 0.0 0.0 0.00 0.00 0.00 65 1000.4
20260504081459 14 307 0.0 0.0 0.00 0.00 0.00 65 1000.4
20260504081000 13 303 0.0 0.0 0.00 0.00 0.00 66 1000.5
20260504050459 11 237 0.0 0.0 0.00 0.00 0.00 63 1000.7
20260504050005 11 222 0.0 0.0 0.00 0.00 0.00 62 1000.7
20260504045500 11 236 0.0 0.0 0.00 0.00 0.00 62 1000.7
20260504045001 11 233 0.0 0.0 0.00 0.00 0.00 62 1000.7
20260504044501 11 252 0.0 0.0 0.00 0.00 0.00 62 1000.8
20260504044001 11 217 0.0 0.0 0.00 0.00 0.00 62 1000.9
20260504043500 11 232 0.0 0.0 0.00 0.00 0.00 61 1000.9
20260504042500 11 204 0.0 0.0 0.00 0.00 0.00 61 1001.2
20260504042001 11 237 0.0 0.0 0.00 0.00 0.00 61 1001.3
20260504041500 11 237 0.0 0.0 0.00 0.00 0.00 61 1001.3
20260504041001 11 225 0.0 0.0 0.00 0.00 0.00 61 1001.5
20260504040500 11 216 0.0 0.0 0.00 0.00 0.00 61 1001.5
20260504040001 11 226 0.0 0.0 0.00 0.00 0.00 60 1001.5
20260504035500 11 221 0.0 0.0 0.00 0.00 0.00 59 1001.6
20260504035001 12 248 0.0 0.0 0.00 0.00 0.00 59 1001.7
20260504034000 12 219 0.0 0.0 0.00 0.00 0.00 57 1001.8
20260504033501 12 222 0.0 0.0 0.00 0.00 0.00 56 1001.8
20260504033001 12 229 0.0 0.0 0.00 0.00 0.00 56 1001.9
20260504032500 12 207 0.0 0.0 0.00 0.00 0.00 55 1002.0
20260504032001 12 218 0.0 0.0 0.00 0.00 0.00 54 1002.1
20260504031001 13 217 0.0 0.0 0.00 0.00 0.00 53 1002.2
20260504030501 13 203 0.0 0.0 0.00 0.00 0.00 52 1002.1
20260504030002 13 238 0.0 0.0 0.00 0.00 0.00 51 1002.1
20260504025500 13 232 0.0 0.0 0.00 0.00 0.00 50 1002.3
20260504025001 14 186 0.0 0.0 0.00 0.00 0.00 48 1002.4
20260504024500 14 233 0.0 0.0 0.00 0.00 0.00 48 1002.4
20260504024001 14 216 0.0 0.0 0.00 0.00 0.00 47 1002.4
20260504023001 15 229 0.0 0.0 0.00 0.00 0.00 46 1002.4
20260504022000 15 244 0.0 0.0 0.00 0.00 0.00 45 1002.5
20260504021501 16 212 0.0 0.0 0.00 0.00 0.00 44 1002.5
20260504021001 16 189 0.0 0.0 0.00 0.00 0.00 44 1002.6
20260504020500 16 220 0.0 0.0 0.00 0.00 0.00 43 1002.6
20260504020004 16 199 0.0 0.0 0.00 0.00 0.00 43 1002.7
20260504015500 16 213 0.0 0.0 0.00 0.00 0.00 42 1003.1
20260504015001 16 210 0.0 0.0 0.00 0.00 0.00 42 1003.1
20260504014500 16 219 0.0 0.0 0.00 0.00 0.00 41 1003.2
20260504014000 16 238 0.0 0.0 0.00 0.00 0.00 41 1003.3
20260504013500 17 221 0.0 0.0 0.00 0.00 0.00 41 1003.4
20260504013001 17 233 0.0 0.0 0.00 0.00 0.00 39 1003.6
20260504012501 17 245 0.0 0.0 0.00 0.00 0.00 39 1003.7
20260504012001 18 236 0.0 0.0 0.00 0.00 0.00 37 1003.7
20260504011500 18 228 0.0 0.0 0.00 0.00 0.00 37 1004.0
20260504011001 19 228 0.0 0.0 0.00 0.00 0.00 36 1004.0
20260504010500 19 219 0.0 0.0 0.00 0.00 0.00 36 1004.0
20260504010004 19 236 0.0 0.0 0.00 0.00 0.00 35 1004.1
20260504005500 20 266 0.0 0.0 0.00 0.00 0.00 35 1004.2
20260504005001 20 269 0.0 0.0 0.00 0.00 0.00 34 1004.4
20260504003500 21 283 0.0 0.0 0.00 0.00 0.00 30 1004.7
20260504003001 21 269 0.0 0.0 0.00 0.00 0.00 30 1004.7
20260504002500 21 259 0.0 0.0 0.00 0.00 0.00 30 1004.9
20260504002001 21 243 0.0 0.0 0.00 0.00 0.00 29 1004.8
20260504001500 21 245 0.0 0.0 0.00 0.00 0.00 30 1004.8
20260504001001 21 292 0.0 0.0 0.00 0.00 0.00 29 1004.9
20260504000500 21 289 0.0 0.0 0.00 0.00 0.00 28 1005.0
20260504000002 21 268 0.0 0.0 0.00 0.00 0.00 28 1005.1
20260503235500 21 282 0.0 0.0 0.00 0.00 0.00 27 1005.0
20260503235001 21 252 0.0 0.0 0.00 0.00 0.00 26 1005.1
20260503234500 22 268 0.0 0.0 0.00 0.00 0.00 27 1005.2
20260503234001 22 271 0.0 0.0 0.00 0.00 0.00 26 1005.3
20260503233001 22 294 0.0 0.0 0.00 0.00 0.00 28 1005.2
20260503232500 22 284 0.0 0.0 0.00 0.00 0.00 27 1005.4
20260503232000 22 308 0.0 0.0 0.00 0.00 0.00 24 1005.4
20260503231501 22 280 0.0 0.0 0.00 0.00 0.00 25 1005.5
20260503231001 22 295 0.0 0.0 0.00 0.00 0.00 23 1005.4
20260503230500 22 287 0.0 0.0 0.00 0.00 0.00 24 1005.4
20260503225001 22 291 0.0 0.0 0.00 0.00 0.00 29 1005.8
20260503224500 22 291 0.0 0.0 0.00 0.00 0.00 29 1005.8
20260503224001 22 276 0.0 0.0 0.00 0.00 0.00 28 1005.8
20260503223001 22 295 0.0 0.0 0.00 0.00 0.00 29 1006.1
20260503222501 22 269 0.0 0.0 0.00 0.00 0.00 30 1006.1
20260503222001 22 285 0.0 0.0 0.00 0.00 0.00 30 1006.3
20260503221001 22 281 0.0 0.0 0.00 0.00 0.00 28 1006.3
20260503220500 22 269 0.0 0.0 0.00 0.00 0.00 30 1006.3
20260503215500 22 297 0.0 0.0 0.00 0.00 0.00 28 1006.8
20260503215000 22 255 0.0 0.0 0.00 0.00 0.00 28 1006.8
20260503214500 22 272 0.0 0.0 0.00 0.00 0.00 30 1006.8
20260503214001 22 274 0.0 0.0 0.00 0.00 0.00 29 1006.9
20260503213500 22 227 0.0 0.0 0.00 0.00 0.00 29 1007.0
20260503213001 22 254 0.0 0.0 0.00 0.00 0.00 29 1007.1
20260503212500 22 269 0.0 0.0 0.00 0.00 0.00 27 1007.1
20260503212000 22 299 0.0 0.0 0.00 0.00 0.00 30 1007.4
20260503211001 21 305 0.0 0.0 0.00 0.00 0.00 29 1007.5
20260503210500 21 301 0.0 0.0 0.00 0.00 0.00 32 1007.7
20260503210005 21 329 0.0 0.0 0.00 0.00 0.00 34 1007.7
20260503205500 21 308 0.0 0.0 0.00 0.00 0.00 31 1007.8
20260503205000 21 278 0.0 0.0 0.00 0.00 0.00 30 1007.9
20260503204500 21 298 0.0 0.0 0.00 0.00 0.00 34 1007.9
20260503204001 21 290 0.0 0.0 0.00 0.00 0.00 33 1008.1
20260503203500 21 295 0.0 0.0 0.00 0.00 0.00 31 1008.0
20260503203000 21 305 0.0 0.0 0.00 0.00 0.00 32 1008.3
20260503202459 21 267 0.0 0.0 0.00 0.00 0.00 32 1008.4
20260503202000 21 238 0.0 0.0 0.00 0.00 0.00 33 1008.5
20260503201500 21 307 0.0 0.0 0.00 0.00 0.00 33 1008.6
20260503201000 21 319 0.0 0.0 0.00 0.00 0.00 32 1008.6
20260503200500 21 26 0.0 0.0 0.00 0.00 0.00 35 1008.6
20260503200005 21 302 0.0 0.0 0.00 0.00 0.00 33 1008.9
20260503195500 21 281 0.0 0.0 0.00 0.00 0.00 39 1009.0
20260503195000 21 271 0.0 0.0 0.00 0.00 0.00 35 1009.2
20260503194500 21 319 0.0 0.0 0.00 0.00 0.00 36 1009.2
20260503194001 21 298 0.0 0.0 0.00 0.00 0.00 37 1009.2
20260503193459 20 287 0.0 0.0 0.00 0.00 0.00 35 1009.3
20260503193000 20 336 0.0 0.0 0.00 0.00 0.00 35 1009.3
20260503192459 21 309 0.0 0.0 0.00 0.00 0.00 35 1009.5
20260503191500 21 333 0.0 0.0 0.00 0.00 0.00 36 1009.5
20260503191000 20 356 0.0 0.0 0.00 0.00 0.00 35 1009.5
20260503190459 20 20 0.0 0.0 0.00 0.00 0.00 36 1009.6
20260503190002 20 323 0.0 0.0 0.00 0.00 0.00 34 1009.7
20260503185500 20 297 0.0 0.0 0.00 0.00 0.00 34 1009.8
20260503184459 20 307 0.0 0.0 0.00 0.00 0.00 37 1009.9
20260503184000 20 305 0.0 0.0 0.00 0.00 0.00 38 1010.2
20260503183459 20 290 0.0 0.0 0.00 0.00 0.00 36 1010.3
20260503183000 20 326 0.0 0.0 0.00 0.00 0.00 34 1010.4
20260503182459 20 16 0.0 0.0 0.00 0.00 0.00 36 1010.4
20260503181459 20 331 0.0 0.0 0.00 0.00 0.00 35 1010.7
20260503181000 20 321 0.0 0.0 0.00 0.00 0.00 39 1010.7
20260503180500 20 20 0.0 0.0 0.00 0.00 0.00 38 1010.8
20260503180002 19 317 0.0 0.0 0.00 0.00 0.00 38 1010.9
20260503175001 20 334 0.0 0.0 0.00 0.00 0.00 37 1011.1
20260503174000 19 46 0.0 0.0 0.00 0.00 0.00 34 1011.2
20260503173459 18 349 0.0 0.0 0.00 0.00 0.00 39 1011.4
20260503173000 18 336 0.0 0.0 0.00 0.00 0.00 37 1011.3
20260503172459 18 318 0.0 0.0 0.00 0.00 0.00 38 1011.4
20260503172001 18 328 0.0 0.0 0.00 0.00 0.00 38 1011.4
20260503171500 18 18 0.0 0.0 0.00 0.00 0.00 37 1011.6
20260503171000 18 297 0.0 0.0 0.00 0.00 0.00 38 1011.5
20260503170500 18 300 0.0 0.0 0.00 0.00 0.00 39 1011.7
20260503151000 15 316 0.0 0.0 0.00 0.00 0.00 58 1012.5
20260503131000 8 291 0.0 0.0 0.00 0.00 0.00 80 1012.6
20260503130500 8 303 0.0 0.0 0.00 0.00 0.00 82 1012.5
20260503110500 5 308 0.0 0.0 0.00 0.00 0.00 85 1011.8